Time,TemperatureF,DewpointF,PressureIn,WindDirection,WindDirectionDegrees,WindSpeedMPH,WindSpeedGustMPH,Humidity,HourlyPrecipIn,Conditions,Clouds,dailyrainin,SoftwareType,DateUTC
2013-06-08 00:12:00,68.0,67.0,-100.00,NE,43,0.0,0.0,98,0.00,,,0.00,,2013-06-08 05:12:00,
2013-06-08 00:22:00,68.0,67.0,-100.00,NE,43,0.0,0.0,98,0.00,,,0.00,,2013-06-08 05:22:00,
2013-06-08 00:32:00,68.0,67.0,-100.00,NE,43,0.0,0.0,98,0.00,,,0.00,,2013-06-08 05:32:00,
2013-06-08 00:42:00,68.0,67.0,-100.00,NE,43,0.0,0.0,98,0.00,,,0.00,,2013-06-08 05:42:00,
2013-06-08 01:12:00,67.0,66.0,-100.00,North,352,0.0,0.0,98,0.00,,,0.00,,2013-06-08 06:12:00,
2013-06-08 01:22:00,67.0,66.0,-100.00,North,352,0.0,0.0,98,0.00,,,0.00,,2013-06-08 06:22:00,
2013-06-08 01:32:00,67.0,66.0,-100.00,North,352,0.0,0.0,98,0.00,,,0.00,,2013-06-08 06:32:00,
2013-06-08 01:42:00,67.0,66.0,-100.00,North,352,0.0,0.0,98,0.00,,,0.00,,2013-06-08 06:42:00,
2013-06-08 02:12:00,67.0,66.0,-100.00,NNW,335,0.0,0.0,98,0.00,,,0.00,,2013-06-08 07:12:00,
2013-06-08 02:22:00,67.0,66.0,-100.00,NNW,335,0.0,0.0,98,0.00,,,0.00,,2013-06-08 07:22:00,
2013-06-08 02:32:00,67.0,66.0,-100.00,NNW,335,0.0,0.0,98,0.00,,,0.00,,2013-06-08 07:32:00,
2013-06-08 02:42:00,67.0,66.0,-100.00,NNW,335,0.0,0.0,98,0.00,,,0.00,,2013-06-08 07:42:00,
2013-06-08 03:12:00,66.0,65.0,-100.00,NNW,336,0.0,0.0,98,0.00,,,0.00,,2013-06-08 08:12:00,
2013-06-08 03:22:00,66.0,65.0,-100.00,NNW,336,0.0,0.0,98,0.00,,,0.00,,2013-06-08 08:22:00,
2013-06-08 03:32:00,66.0,65.0,-100.00,NNW,336,0.0,0.0,98,0.00,,,0.00,,2013-06-08 08:32:00,
2013-06-08 03:42:00,66.0,65.0,-100.00,NNW,336,0.0,0.0,98,0.00,,,0.00,,2013-06-08 08:42:00,
2013-06-08 04:12:00,66.0,66.0,-100.00,NNW,336,0.0,0.0,99,0.00,,,0.00,,2013-06-08 09:12:00,
2013-06-08 04:22:00,66.0,66.0,-100.00,NNW,336,0.0,0.0,99,0.00,,,0.00,,2013-06-08 09:22:00,
2013-06-08 04:33:00,66.0,66.0,-100.00,NNW,336,0.0,0.0,99,0.00,,,0.00,,2013-06-08 09:33:00,
2013-06-08 04:43:00,66.0,66.0,-100.00,NNW,336,0.0,0.0,99,0.00,,,0.00,,2013-06-08 09:43:00,
2013-06-08 05:12:00,66.0,66.0,-100.00,NE,45,0.0,0.0,99,0.00,,,0.00,,2013-06-08 10:12:00,
2013-06-08 05:22:00,66.0,66.0,-100.00,NE,45,0.0,0.0,99,0.00,,,0.00,,2013-06-08 10:22:00,
2013-06-08 05:33:00,66.0,66.0,-100.00,NE,45,0.0,0.0,99,0.00,,,0.00,,2013-06-08 10:33:00,
2013-06-08 05:43:00,66.0,66.0,-100.00,NE,45,0.0,0.0,99,0.00,,,0.00,,2013-06-08 10:43:00,
2013-06-08 06:12:00,67.0,67.0,-100.00,WNW,302,0.0,2.0,99,0.00,,,0.00,,2013-06-08 11:12:00,
2013-06-08 06:22:00,67.0,67.0,-100.00,WNW,302,0.0,2.0,99,0.00,,,0.00,,2013-06-08 11:22:00,
2013-06-08 06:32:00,67.0,67.0,-100.00,WNW,302,0.0,2.0,99,0.00,,,0.00,,2013-06-08 11:32:00,
2013-06-08 06:42:00,67.0,67.0,-100.00,WNW,302,0.0,2.0,99,0.00,,,0.00,,2013-06-08 11:42:00,
2013-06-08 07:12:00,68.0,68.0,-100.00,ESE,102,0.0,1.0,99,0.00,,,0.00,,2013-06-08 12:12:00,
2013-06-08 07:22:00,68.0,68.0,-100.00,ESE,102,0.0,1.0,99,0.00,,,0.00,,2013-06-08 12:22:00,
2013-06-08 07:32:00,68.0,68.0,-100.00,ESE,102,0.0,1.0,99,0.00,,,0.00,,2013-06-08 12:32:00,
2013-06-08 07:42:00,68.0,68.0,-100.00,ESE,102,0.0,1.0,99,0.00,,,0.00,,2013-06-08 12:42:00,
2013-06-08 08:12:00,73.0,73.0,-100.00,SE,146,2.0,4.0,99,0.00,,,0.00,,2013-06-08 13:12:00,
2013-06-08 08:22:00,73.0,73.0,-100.00,SE,146,2.0,4.0,99,0.00,,,0.00,,2013-06-08 13:22:00,
2013-06-08 08:32:00,73.0,73.0,-100.00,SE,146,2.0,4.0,99,0.00,,,0.00,,2013-06-08 13:32:00,
2013-06-08 08:42:00,73.0,73.0,-100.00,SE,146,2.0,4.0,99,0.00,,,0.00,,2013-06-08 13:42:00,
2013-06-08 09:12:00,80.0,71.0,-100.00,ESE,119,1.0,5.0,75,0.00,,,0.00,,2013-06-08 14:12:00,
2013-06-08 09:22:00,80.0,71.0,-100.00,ESE,119,1.0,5.0,75,0.00,,,0.00,,2013-06-08 14:22:00,
2013-06-08 09:32:00,80.0,71.0,-100.00,ESE,119,1.0,5.0,75,0.00,,,0.00,,2013-06-08 14:32:00,
2013-06-08 09:42:00,80.0,71.0,-100.00,ESE,119,1.0,5.0,75,0.00,,,0.00,,2013-06-08 14:42:00,
2013-06-08 10:12:00,85.0,72.0,-100.00,West,278,2.0,6.0,65,0.00,,,0.00,,2013-06-08 15:12:00,
2013-06-08 10:22:00,85.0,72.0,-100.00,West,278,2.0,6.0,65,0.00,,,0.00,,2013-06-08 15:22:00,
2013-06-08 10:32:00,85.0,72.0,-100.00,West,278,2.0,6.0,65,0.00,,,0.00,,2013-06-08 15:32:00,
2013-06-08 10:42:00,85.0,72.0,-100.00,West,278,2.0,6.0,65,0.00,,,0.00,,2013-06-08 15:42:00,
2013-06-08 11:12:00,84.0,70.0,-100.00,West,263,2.0,6.0,64,0.00,,,0.00,,2013-06-08 16:12:00,
2013-06-08 11:23:00,84.0,70.0,-100.00,West,263,2.0,6.0,64,0.00,,,0.00,,2013-06-08 16:23:00,
2013-06-08 11:33:00,84.0,70.0,-100.00,West,263,2.0,6.0,64,0.00,,,0.00,,2013-06-08 16:33:00,
2013-06-08 11:42:00,84.0,70.0,-100.00,West,263,2.0,6.0,64,0.00,,,0.00,,2013-06-08 16:42:00,
2013-06-08 12:12:00,89.0,71.0,-100.00,SW,230,5.0,11.0,56,0.00,,,0.00,,2013-06-08 17:12:00,
2013-06-08 12:23:00,89.0,71.0,-100.00,SW,230,5.0,11.0,56,0.00,,,0.00,,2013-06-08 17:23:00,
2013-06-08 12:32:00,89.0,71.0,-100.00,SW,230,5.0,11.0,56,0.00,,,0.00,,2013-06-08 17:32:00,
2013-06-08 12:42:00,89.0,71.0,-100.00,SW,230,5.0,11.0,56,0.00,,,0.00,,2013-06-08 17:42:00,
2013-06-08 13:12:00,89.0,71.0,-100.00,WSW,241,5.0,13.0,55,0.00,,,0.00,,2013-06-08 18:12:00,
2013-06-08 13:22:00,89.0,71.0,-100.00,WSW,241,5.0,13.0,55,0.00,,,0.00,,2013-06-08 18:22:00,
2013-06-08 13:32:00,89.0,71.0,-100.00,WSW,241,5.0,13.0,55,0.00,,,0.00,,2013-06-08 18:32:00,
2013-06-08 13:42:00,89.0,71.0,-100.00,WSW,241,5.0,13.0,55,0.00,,,0.00,,2013-06-08 18:42:00,
2013-06-08 14:12:00,89.0,72.0,-100.00,SSW,213,5.0,12.0,58,0.00,,,0.00,,2013-06-08 19:12:00,
2013-06-08 14:22:00,89.0,72.0,-100.00,SSW,213,5.0,12.0,58,0.00,,,0.00,,2013-06-08 19:22:00,
2013-06-08 14:32:00,89.0,72.0,-100.00,SSW,213,5.0,12.0,58,0.00,,,0.00,,2013-06-08 19:32:00,
2013-06-08 14:42:00,89.0,72.0,-100.00,SSW,213,5.0,12.0,58,0.00,,,0.00,,2013-06-08 19:42:00,
2013-06-08 15:12:00,89.0,70.0,-100.00,WSW,246,6.0,15.0,54,0.00,,,0.00,,2013-06-08 20:12:00,
2013-06-08 15:22:00,89.0,70.0,-100.00,WSW,246,6.0,15.0,54,0.00,,,0.00,,2013-06-08 20:22:00,
2013-06-08 15:32:00,89.0,70.0,-100.00,WSW,246,6.0,15.0,54,0.00,,,0.00,,2013-06-08 20:32:00,
2013-06-08 15:42:00,89.0,70.0,-100.00,WSW,246,6.0,15.0,54,0.00,,,0.00,,2013-06-08 20:42:00,
2013-06-08 16:12:00,89.0,70.0,-100.00,WSW,247,5.0,11.0,54,0.00,,,0.00,,2013-06-08 21:12:00,
2013-06-08 16:22:00,89.0,70.0,-100.00,WSW,247,5.0,11.0,54,0.00,,,0.00,,2013-06-08 21:22:00,
2013-06-08 16:33:00,89.0,70.0,-100.00,WSW,247,5.0,11.0,54,0.00,,,0.00,,2013-06-08 21:33:00,
2013-06-08 16:43:00,89.0,70.0,-100.00,WSW,247,5.0,11.0,54,0.00,,,0.00,,2013-06-08 21:43:00,
2013-06-08 17:12:00,87.0,69.0,-100.00,South,191,4.0,12.0,56,0.00,,,0.00,,2013-06-08 22:12:00,
2013-06-08 17:23:00,87.0,69.0,-100.00,South,191,4.0,12.0,56,0.00,,,0.00,,2013-06-08 22:23:00,
2013-06-08 17:33:00,87.0,69.0,-100.00,South,191,4.0,12.0,56,0.00,,,0.00,,2013-06-08 22:33:00,
2013-06-08 17:42:00,87.0,69.0,-100.00,South,191,4.0,12.0,56,0.00,,,0.00,,2013-06-08 22:42:00,
2013-06-08 18:12:00,88.0,72.0,-100.00,SSW,210,5.0,10.0,59,0.00,,,0.00,,2013-06-08 23:12:00,
2013-06-08 18:22:00,88.0,72.0,-100.00,SSW,210,5.0,10.0,59,0.00,,,0.00,,2013-06-08 23:22:00,
2013-06-08 18:32:00,88.0,72.0,-100.00,SSW,210,5.0,10.0,59,0.00,,,0.00,,2013-06-08 23:32:00,
2013-06-08 18:42:00,88.0,72.0,-100.00,SSW,210,5.0,10.0,59,0.00,,,0.00,,2013-06-08 23:42:00,
2013-06-08 19:12:00,83.0,73.0,-100.00,South,171,2.0,8.0,72,0.00,,,0.00,,2013-06-09 00:12:00,
2013-06-08 19:22:00,83.0,73.0,-100.00,South,171,2.0,8.0,72,0.00,,,0.00,,2013-06-09 00:22:00,
2013-06-08 19:32:00,83.0,73.0,-100.00,South,171,2.0,8.0,72,0.00,,,0.00,,2013-06-09 00:32:00,
2013-06-08 19:42:00,83.0,73.0,-100.00,South,171,2.0,8.0,72,0.00,,,0.00,,2013-06-09 00:42:00,
2013-06-08 20:12:00,81.0,73.0,-100.00,SE,126,3.0,6.0,76,0.00,,,0.00,,2013-06-09 01:12:00,
2013-06-08 20:22:00,81.0,73.0,-100.00,SE,126,3.0,6.0,76,0.00,,,0.00,,2013-06-09 01:22:00,
2013-06-08 20:32:00,81.0,73.0,-100.00,SE,126,3.0,6.0,76,0.00,,,0.00,,2013-06-09 01:32:00,
2013-06-08 20:42:00,81.0,73.0,-100.00,SE,126,3.0,6.0,76,0.00,,,0.00,,2013-06-09 01:42:00,
2013-06-08 21:12:00,76.0,74.0,-100.00,East,81,1.0,6.0,94,0.04,,,0.04,,2013-06-09 02:12:00,
2013-06-08 21:22:00,76.0,74.0,-100.00,East,81,1.0,6.0,94,0.04,,,0.04,,2013-06-09 02:22:00,
2013-06-08 21:32:00,76.0,74.0,-100.00,East,81,1.0,6.0,94,0.04,,,0.04,,2013-06-09 02:32:00,
2013-06-08 21:42:00,76.0,74.0,-100.00,East,81,1.0,6.0,94,0.04,,,0.04,,2013-06-09 02:42:00,
2013-06-08 22:12:00,73.0,72.0,-100.00,South,182,2.0,6.0,96,0.01,,,0.05,,2013-06-09 03:12:00,
2013-06-08 22:22:00,73.0,72.0,-100.00,South,182,2.0,6.0,96,0.01,,,0.05,,2013-06-09 03:22:00,
2013-06-08 22:33:00,73.0,72.0,-100.00,South,182,2.0,6.0,96,0.01,,,0.05,,2013-06-09 03:33:00,
2013-06-08 22:43:00,73.0,72.0,-100.00,South,182,2.0,6.0,96,0.01,,,0.05,,2013-06-09 03:43:00,
2013-06-08 23:12:00,71.0,68.0,-100.00,SSE,168,2.0,11.0,91,0.02,,,0.07,,2013-06-09 04:12:00,
2013-06-08 23:23:00,71.0,68.0,-100.00,SSE,168,2.0,11.0,91,0.02,,,0.07,,2013-06-09 04:23:00,
2013-06-08 23:33:00,71.0,68.0,-100.00,SSE,168,2.0,11.0,91,0.02,,,0.07,,2013-06-09 04:33:00,
2013-06-08 23:43:00,71.0,68.0,-100.00,SSE,168,2.0,11.0,91,0.02,,,0.07,,2013-06-09 04:43:00,